Location: Dos Palmas
(32.4468°N, 116.8732°W)
Time: 01:41:40
(UTC+00:00)

Meteor 1-24 Rocket - Pass Details

Date: 26 October 2021
Orbit: 790 x 927 km, 81.3° (Epoch: 07 December)

Event Time Altitude Azimuth Distance (km) Brightness Sun altitude
Rises 12:12:45 0° 163° (SSE) 3,273 7.0 -23.2°
Reaches altitude 10° 12:15:18 10° 154° (SSE) 2,353 6.3 -22.7°
Maximum altitude 12:19:59 33° 91° (E) 1,317 5.3 -21.7°
Drops below altitude 10° 12:24:48 10° 28° (NNE) 2,413 6.4 -20.7°
Sets 12:27:26 0° 20° (NNE) 3,369 7.1 -20.1°
